Regional Weather Roundup
Issued by NWS Kansas City/Pleasant Hill, MO

Home | Current Version | Previous Version | Graphics & Text | Print | Product List | Glossary Off
Versions: 1 2 3 4 5 6 7 8 9 10 11 12 13 14 15 16 17 18 19 20 21 22 23 24 25 26 27 28

000
ASUS43 KEAX 301110
RWREAX

WEATHER ROUNDUP FOR EASTERN KANSAS AND NORTHWEST MISSOURI
NATIONAL WEATHER SERVICE KANSAS CITY/PLEASANT HILL MO
600 AM CDT TUE AUG 30 2016

KSZ040-057-103>105-MOZ028-029-037-043-301200-
...KANSAS CITY METROPOLITAN AREA...

CITY           SKY/WX    TMP DP  RH WIND       PRES   REMARKS
K.C. INTL      CLOUDY    71  68  90 E7        30.16S
K.C. DOWNTOWN  CLOUDY    72  69  90 E5        30.14F
LEES SUMMIT    RAIN      70  69  97 NE9       30.16S
OLATHE - IXD   CLOUDY    71  70  96 W3        30.15R
OLATHE - OJC   CLOUDY    69  69 100 CALM      30.15R
LAWRENCE       PTCLDY    70  70 100 CALM      30.15S

$$

MOZ001>008-011>017-020>025-030>033-038>040-044>046-053-054-301200-
...NORTHERN AND CENTRAL MISSOURI...

CITY           SKY/WX    TMP DP  RH WIND       PRES   REMARKS
ST. JOSEPH     PTCLDY    70  68  93 CALM      30.16S
MOSBY          RAIN      70  70 100 CALM      30.15S
WHITEMAN AFB   PTCLDY    71  71  99 N6        30.15R
CLINTON        MOCLDY    72  72 100 CALM      30.15R
SEDALIA        CLOUDY    73  71  93 NW5       30.16R FOG
WARSAW         NOT AVBL
CHILLICOTHE      N/A     73  71  93 CALM      30.18S
KIRKSVILLE     CLOUDY    70  68  93 NE6       30.17R

$$

MOZ041-047>049-056>058-063>065-088>090-097-301200-
...EASTERN AND SOUTHERN MISSOURI...

CITY           SKY/WX    TMP DP  RH WIND       PRES   REMARKS
ST. LOUIS INTL CLEAR     78  72  81 CALM      30.14R
SPIRIT OF STL  PTCLDY    71  71 100 CALM      30.12S FOG
COLUMBIA       CLEAR     72  72 100 SE5       30.14S FOG
JEFFERSON CITY PTCLDY    70  69  97 CALM      30.13S
ROLLA          CLEAR     69  68  96 S3        30.15R
OSAGE BEACH    CLEAR     70  69  97 CALM      30.15R
SPRINGFIELD    CLEAR     72  68  87 CALM      30.15R
BRANSON        MOCLDY    68  68 100 CALM      30.16R
JOPLIN         MOCLDY    71  69  93 VRB3      30.14R
WEST PLAINS    CLEAR     71  68  90 CALM      30.16S

$$

IAZ060-094-KSZ022-034>040-054-083-096-NEZ052-066-093-301200-
...KANSAS...SOUTHEAST NEBRASKA AND IOWA...

CITY           SKY/WX    TMP DP  RH WIND       PRES   REMARKS
TOPEKA         PTCLDY    71  68  90 CALM      30.15S
MANHATTAN      PTCLDY    70  68  93 NE3       30.16R
EMPORIA        CLOUDY    71  70  96 CALM      30.15R
CHANUTE        PTCLDY    73  71  93 NE5       30.13R
WICHITA        MOCLDY    74  71  91 NE5       30.14R
OMAHA          CLOUDY    69  66  90 CALM      30.19R
LINCOLN        LGT RAIN  70  68  93 NE5       30.20R
FALLS CITY     TSTM      70  69  97 SW7       30.16R
LAMONI         CLOUDY    69  69 100 CALM      30.18S
DES MOINES     CLOUDY    71  70  96 W3        30.17R FOG

$$





USA.gov is the U.S. government's official web portal to all federal, state and local government web resources and services.